Date String (YYYY-MM-DD hh:mm:ss) UTC,Instrument flags,absolute air pressure of the measurement (hPa),sample flow rate (lpm),inlet stack bypass flow (lpm),air temperature of the measurement (°C),ambient temperature measured by the external sensor (°C),aerosol sample conditioner tube jacket temperature (°C),OPC LED temperature (°C),internal box temperature (°C),relative humidity of the measurement (%),span deviation,mass concentration of particles derived from Lorenz-Mie calculation of OPC scattering (μg/m³),mass concentration of particles derived from Lorenz-Mie calculation of OPC scattering (μg/m³),mass concentration of particles derived from Lorenz-Mie calculation of OPC scattering (μg/m³)
DateTimeUTC,F1_M11,P_M11,Q1_M11,Q2_M11,T1_M11,T2_M11,T3_M11,T4_M11,T5_M11,U1_M11,ZSPAN_M11,X0_M11,X2_M11,X1_M11
2023-09-11 00:00:00,SystemResetWarning,0837.9,5.00,000.00,029.7,027.4,000.0,037.6,030.4,33.8,0000.8,0008.60,0005.13,0004.63
2023-09-11 00:01:00,SystemResetWarning,0837.9,4.99,000.00,029.7,027.5,000.0,037.7,030.5,33.7,0000.8,0008.38,0004.99,0004.52
2023-09-11 00:02:00,SystemResetWarning,0838.0,5.00,000.00,029.7,027.6,000.0,037.7,030.5,33.8,0000.9,0008.23,0004.89,0004.42
2023-09-11 00:03:00,SystemResetWarning,0838.0,5.00,000.00,029.7,027.7,000.0,037.7,030.6,33.8,0000.9,0008.09,0004.80,0004.35
2023-09-11 00:04:00,SystemResetWarning,0838.1,5.02,000.00,029.7,027.7,000.0,037.8,030.6,34.0,0001.2,0008.01,0004.74,0004.29
2023-09-11 00:05:00,SystemResetWarning,0838.0,5.00,000.00,029.7,027.8,000.0,037.8,030.6,34.1,0000.8,0008.00,0004.70,0004.24
2023-09-11 00:06:00,SystemResetWarning,0838.0,4.99,000.00,029.7,027.8,000.0,037.8,030.7,33.9,0000.5,0007.94,0004.64,0004.19
2023-09-11 00:07:00,SystemResetWarning,0837.9,4.99,000.00,029.8,027.8,000.0,037.8,030.7,33.8,0000.8,0007.91,0004.62,0004.17
2023-09-11 00:08:00,SystemResetWarning,0838.0,5.00,000.00,029.8,026.7,000.0,037.8,030.5,33.8,0001.1,0007.82,0004.57,0004.15
2023-09-11 00:09:00,SystemResetWarning,0837.9,5.00,000.00,029.7,025.2,000.0,037.7,030.3,34.0,0000.9,0007.77,0004.56,0004.15
2023-09-11 00:10:00,SystemResetWarning,0837.8,5.01,000.00,029.6,024.8,000.0,037.6,030.2,34.1,0000.7,0007.80,0004.61,0004.21
2023-09-11 00:11:00,SystemResetWarning,0837.8,5.01,000.00,029.4,024.9,000.0,037.6,029.9,34.5,0000.3,0007.81,0004.63,0004.27
2023-09-11 00:12:00,SystemResetWarning,0837.8,5.00,000.00,029.3,025.3,000.0,037.6,029.9,34.9,0000.2,0008.00,0004.76,0004.39
2023-09-11 00:13:00,SystemResetWarning,0837.8,5.00,000.00,029.2,025.6,000.0,037.6,030.0,34.9,0000.1,0008.17,0004.88,0004.51
2023-09-11 00:14:00,SystemResetWarning,0837.8,5.00,000.00,029.2,026.0,000.0,037.6,030.0,34.9,-000.1,0008.31,0004.99,0004.65
2023-09-11 00:15:00,SystemResetWarning,0837.8,4.97,000.00,029.2,026.3,000.0,037.6,030.1,35.1,-000.1,0008.56,0005.16,0004.81
2023-09-11 00:16:00,SystemResetWarning,0837.8,5.05,000.00,029.3,026.6,000.0,037.6,030.2,34.9,-000.1,0008.65,0005.28,0004.94
2023-09-11 00:17:00,SystemResetWarning,0837.7,4.96,000.00,029.5,026.8,000.0,037.6,030.3,34.4,0000.0,0008.79,0005.42,0005.08
2023-09-11 00:18:00,SystemResetWarning,0837.8,5.03,000.00,029.6,027.0,000.0,037.6,030.4,34.1,-000.0,0008.99,0005.55,0005.22
2023-09-11 00:19:00,SystemResetWarning,0837.8,4.98,000.00,029.7,027.1,000.0,037.6,030.4,34.0,-000.2,0009.20,0005.71,0005.35
2023-09-11 00:20:00,SystemResetWarning,0837.8,4.99,000.00,029.7,027.2,000.0,037.6,030.4,34.0,-000.2,0009.40,0005.87,0005.50
2023-09-11 00:21:00,SystemResetWarning,0837.8,5.01,000.00,029.7,027.4,000.0,037.7,030.4,33.9,-000.4,0009.61,0005.98,0005.59
2023-09-11 00:22:00,SystemResetWarning,0837.8,5.00,000.00,029.7,027.5,000.0,037.7,030.5,33.8,-000.3,0009.86,0006.13,0005.72
2023-09-11 00:23:00,SystemResetWarning,0837.8,5.01,000.00,029.8,027.5,000.0,037.8,030.5,33.7,-000.2,0010.08,0006.30,0005.86
2023-09-11 00:24:00,SystemResetWarning,0837.7,5.00,000.00,029.8,027.6,000.0,037.8,030.5,33.7,-000.2,0010.27,0006.43,0005.98
2023-09-11 00:25:00,SystemResetWarning,0837.8,4.99,000.00,029.8,027.7,000.0,037.8,030.6,33.8,-000.0,0010.44,0006.55,0006.09
2023-09-11 00:26:00,SystemResetWarning,0837.7,4.99,000.00,029.8,027.7,000.0,037.9,030.6,33.8,0000.1,0010.58,0006.65,0006.17
2023-09-11 00:27:00,SystemResetWarning,0837.8,4.99,000.00,029.8,027.8,000.0,037.9,030.7,33.8,0000.3,0010.72,0006.73,0006.25
2023-09-11 00:28:00,SystemResetWarning,0837.8,5.00,000.00,029.8,027.8,000.0,037.9,030.7,33.8,0000.4,0010.94,0006.84,0006.35
2023-09-11 00:29:00,SystemResetWarning,0837.8,5.00,000.00,029.8,027.3,000.0,037.9,030.7,33.6,0000.2,0011.07,0006.93,0006.44
2023-09-11 00:30:00,SystemResetWarning,0837.8,5.00,000.00,029.8,025.6,000.0,037.8,030.4,33.6,-000.0,0011.13,0006.98,0006.49
2023-09-11 00:31:00,SystemResetWarning,0837.8,5.00,000.00,029.7,024.8,000.0,037.7,030.3,33.6,0000.1,0011.19,0007.03,0006.54
2023-09-11 00:32:00,SystemResetWarning,0837.8,5.01,000.00,029.6,024.8,000.0,037.7,030.1,33.8,0000.2,0011.25,0007.09,0006.60
2023-09-11 00:33:00,SystemResetWarning,0837.8,5.02,000.00,029.4,025.2,000.0,037.7,029.9,34.2,0000.1,0011.24,0007.11,0006.61
2023-09-11 00:34:00,SystemResetWarning,0837.9,4.99,000.00,029.3,025.5,000.0,037.7,030.0,34.5,0000.1,0011.12,0007.08,0006.60
2023-09-11 00:35:00,SystemResetWarning,0837.9,5.00,000.00,029.3,025.9,000.0,037.7,030.0,34.6,0000.3,0011.15,0007.10,0006.62
2023-09-11 00:36:00,SystemResetWarning,0837.8,5.00,000.00,029.3,026.2,000.0,037.6,030.1,34.7,0000.2,0011.20,0007.13,0006.64
2023-09-11 00:37:00,SystemResetWarning,0837.8,5.00,000.00,029.2,026.4,000.0,037.6,030.2,34.6,0000.0,0011.24,0007.16,0006.68
2023-09-11 00:38:00,SystemResetWarning,0837.8,5.00,000.00,029.2,026.6,000.0,037.6,030.2,34.5,-000.1,0011.38,0007.24,0006.73
2023-09-11 00:39:00,SystemResetWarning,0837.8,5.00,000.00,029.2,026.8,000.0,037.6,030.2,34.6,-000.3,0011.38,0007.27,0006.77
2023-09-11 00:40:00,SystemResetWarning,0837.8,5.00,000.00,029.2,027.0,000.0,037.6,030.2,34.7,-000.1,0011.50,0007.32,0006.79
2023-09-11 00:41:00,SystemResetWarning,0837.9,5.00,000.00,029.2,027.1,000.0,037.6,030.3,34.7,0000.1,0011.54,0007.37,0006.85
2023-09-11 00:42:00,SystemResetWarning,0837.9,5.00,000.00,029.2,027.2,000.0,037.5,030.4,34.6,0000.2,0011.59,0007.43,0006.90
2023-09-11 00:43:00,SystemResetWarning,0837.8,5.00,000.00,029.2,027.3,000.0,037.5,030.4,34.5,0000.1,0011.53,0007.44,0006.96
2023-09-11 00:44:00,SystemResetWarning,0837.8,5.00,000.00,029.2,027.4,000.0,037.5,030.4,34.7,0000.2,0011.65,0007.52,0007.04
2023-09-11 00:45:00,SystemResetWarning,0837.8,5.00,000.00,029.2,027.4,000.0,037.5,030.4,34.8,0000.2,0011.78,0007.60,0007.10
2023-09-11 00:46:00,SystemResetWarning,0837.8,5.00,000.00,029.2,027.5,000.0,037.5,030.5,34.6,0000.1,0011.80,0007.62,0007.14
2023-09-11 00:47:00,SystemResetWarning,0837.8,5.00,000.00,029.3,027.5,000.0,037.5,030.6,34.5,0000.2,0011.83,0007.65,0007.16
2023-09-11 00:48:00,SystemResetWarning,0837.8,5.00,000.00,029.3,027.6,000.0,037.5,030.6,34.4,0000.3,0011.82,0007.67,0007.17
2023-09-11 00:49:00,SystemResetWarning,0837.8,5.00,000.00,029.3,027.6,000.0,037.5,030.6,34.3,0000.4,0011.75,0007.66,0007.18
2023-09-11 00:50:00,SystemResetWarning,0837.8,5.00,000.00,029.3,027.6,000.0,037.5,030.6,34.5,0000.5,0011.71,0007.68,0007.20
2023-09-11 00:51:00,SystemResetWarning,0837.7,4.99,000.00,029.3,026.8,000.0,037.5,030.5,34.5,0000.5,0011.71,0007.70,0007.22
2023-09-11 00:52:00,SystemResetWarning,0837.7,5.00,000.00,029.2,025.2,000.0,037.4,030.2,34.6,0000.4,0011.64,0007.68,0007.23
2023-09-11 00:53:00,SystemResetWarning,0837.7,5.00,000.00,029.2,024.6,000.0,037.3,030.1,34.6,0000.3,0011.69,0007.70,0007.24
2023-09-11 00:54:00,SystemResetWarning,0837.6,4.99,000.00,029.0,024.7,000.0,037.3,029.9,34.9,0000.2,0011.77,0007.71,0007.23
2023-09-11 00:55:00,SystemResetWarning,0837.6,5.04,000.00,029.0,025.1,000.0,037.3,029.8,35.0,0000.2,0011.71,0007.68,0007.19
2023-09-11 00:56:00,SystemResetWarning,0837.6,4.96,000.00,029.1,025.4,000.0,037.3,029.9,34.7,0000.1,0011.63,0007.65,0007.18
2023-09-11 00:57:00,SystemResetWarning,0837.6,5.02,000.00,029.2,025.8,000.0,037.3,030.0,34.6,0000.2,0011.62,0007.64,0007.17
2023-09-11 00:58:00,SystemResetWarning,0837.7,4.99,000.00,029.2,026.1,000.0,037.3,030.0,34.5,0000.0,0011.62,0007.63,0007.15
2023-09-11 00:59:00,SystemResetWarning,0837.7,4.99,000.00,029.2,026.4,000.0,037.3,030.1,34.4,-000.1,0011.67,0007.64,0007.16
